Presure
185 179 69 73 167 144 83 179 121 192 207 146 135 187 194 206 211 148 190 155 173 174 165 165 171 165 144 163 168 216 173 173 161 166 142 153 144 143 156 158 159 158 155 160
194 180 171 174 170 181 99 111 163 200 198 187 164 101 108 98 157 154 205 164 157 170 160 156 175 165 135 135 150 159 167 166 170 169 166 163 163 168 164 154 151 157 147 152
192 170 178 162 179 67 99 163 158 192 140 158 159 173 97 107 152 173 200 178 168 167 168 155 157 156 169 149 156 163 159 158 157 152 163 166 161 155 159 87 134 153 158 141
182 174 177 181 165 162 179 187 180 191 206 190 183 185 186 193 95 114 133 102 107 166 159 153 131 131 168 166 157 153 106 135 123 176 171 168 136 137 144 163 163 166 152 142
170 173 173 178 180 172 181 99 127 169 174 144 186 183 189 198 190 114 130 149 101 102 115 153 131 157 179 110 163 153 103 111 114 103 112 117 130 136 160 141 130 135 142 162
178 170 178 185 195 179 182 123 163 129 166 100 176 184 186 199 174 212 104 92 155 109 108 128 159 177 165 180 116 99 102 106 108 159 147 138 135 158 131 154 158 168 172 132
185 185 95 129 184 176 175 177 193 173 145 151 174 182 186 184 139 201 194 121 179 156 169 143 156 157 123 95 97 149 102 97 168 172 167 152 171 164 149 148 153 159 149 154
186 185 194 171 80 166 175 184 174 140 177 185 88 154 186 198 184 196 191 195 177 169 167 160 151 168 95 163 162 96 153 164 166 159 167 171 182 147 157 139 159 174 164 149
196 195 192 183 185 122 84 151 174 176 178 152 178 167 186 194 168 184 186 130 138 140 141 158 160 175 160 178 177 167 159 154 156 171 174 89 154 163 182 174 151 158 147 181
193 193 191 192 187 159 184 175 166 107 165 178 169 180 191 177 177 177 177 201 203 184 139 122 153 162 168 155 179 172 173 171 166 160 162 153 153 153 151 161 153 167 179 180
196 192 192 185 158 196 193 186 159 181 168 174 174 169 174 184 182 188 186 177 194 204 163 97 96 136 185 172 175 173 165 145 181 171 145 155 147 150 172 163 180 173 170 167
193 195 195 197 189 191 195 186 173 186 164 182 179 164 162 162 191 194 189 177 204 208 148 157 166 170 137 153 152 171 172 163 180 175 149 181 179 178 170 176 170 168 168 189
181 194 195 202 200 193 181 178 163 175 192 160 156 174 193 176 185 170 172 172 192 204 203 176 171 143 142 180 179 172 180 155 161 159 175 181 172 173 175 175 193 193 183 193
165 186 189 188 172 166 196 179 180 189 186 175 159 146 166 165 162 198 185 187 175 206 198 198 191 172 179 149 164 152 183 176 188 188 176 170 172 180 190 154 194 189 154 170
189 193 183 163 159 186 184 171 191 193 197 164 189 157 182 153 167 170 185 193 180 184 198 193 156 156 189 133 176 192 175 168 173 175 182 189 153 195 190 167 230 215 217 140
188 185 186 187 187 138 157 183 178 185 182 186 187 114 170 173 133 143 131 185 166 153 157 199 186 189 185 176 169 187 172 173 188 187 178 167 189 159 198 213 211 137 224 164
195 196 192 193 180 187 185 187 176 193 173 194 182 195 172 133 156 183 150 146 155 198 188 200 197 167 171 169 171 176 190 180 187 193 182 166 130 199 146 218 132 205 146 134
192 192 194 194 194 189 197 202 139 184 147 140 146 204 231 168 175 214 218 173 194 165 168 205 183 184 199 195 194 175 160 198 194 209 214 142 188 198 131 124 144 142 190 224
179 233 158 238 235 235 238 230 220 222 226 230 224 229 217 219 151 152 166 159 195 197 192 203 192 190 121 199 197 201 201 194 148 214 126 216 207 172 203 145 133 206 262 161
219 138 220 217 228 225 228 150 226 178 142 153 225 150 220 215 207 178 203 196 212 212 207 189 113 101 125 154 185 232 151 147 143 173 192 184 214 188 199 192 158 148 235 314
218 170 215 221 220 220 217 211 196 141 141 171 220 210 209 181 155 204 202 201 207 205 178 177 202 154 176 196 181 201 168 118 182 187 201 195 200 223 228 208 243 312 362 433
221 159 149 153 156 145 149 186 192 172 183 210 196 215 212 212 209 207 206 207 211 186 210 186 214 177 175 168 173 183 176 149 203 193 208 201 198 218 277 296 315 353 426 414
217 175 214 218 205 210 205 209 171 211 216 219 219 216 216 160 212 216 190 193 194 197 229 187 189 138 197 158 167 185 213 198 192 226 196 223 140 235 284 317 337 422 413 407
211 176 124 224 222 225 227 156 181 200 193 144 208 206 205 203 165 169 174 204 164 133 180 205 139 171 151 176 206 183 183 224 223 243 170 245 280 282 307 347 416 415 401 389
226 222 228 129 171 218 222 215 207 176 188 193 210 212 186 166 187 163 212 201 130 204 180 186 175 176 195 182 209 207 217 207 177 246 265 279 283 289 360 407 408 400 387 370
226 220 227 214 207 153 191 200 209 181 163 139 134 148 177 163 168 181 131 178 180 124 162 172 162 183 205 195 225 226 149 235 247 197 275 285 294 403 412 406 406 381 365 351
Wind_Speed
64 59 9 12 56 44 32 44 48 42 30 50 33 27 28 26 26 43 43 32 38 39 40 40 40 39 34 36 36 22 32 36 36 34 34 37 39 42 36 37 39 41 44 44
63 54 59 54 54 40 33 45 40 38 28 23 31 39 35 38 33 49 41 39 37 41 40 39 41 41 36 35 32 35 39 38 37 37 38 39 39 38 39 41 44 47 51 49
63 59 58 58 46 11 24 57 42 32 34 53 35 36 38 43 32 38 43 41 41 42 42 40 38 39 44 37 37 40 39 38 36 37 39 39 39 42 44 40 54 49 54 58
60 58 57 53 47 41 43 50 39 36 32 23 28 34 36 31 29 40 45 29 28 44 43 41 36 37 45 44 42 40 37 41 43 46 45 44 51 54 53 51 52 54 55 64
52 53 55 46 45 50 60 40 30 33 29 44 25 31 34 33 34 33 47 38 29 33 36 43 42 45 47 38 46 41 41 46 48 47 51 56 56 57 48 57 63 65 66 64
64 62 56 60 62 56 40 43 52 30 39 32 32 31 36 32 38 40 31 27 46 42 39 42 47 51 48 49 37 39 44 48 52 49 48 59 58 54 64 64 59 65 70 70
64 65 28 33 52 44 40 47 44 41 31 33 29 30 40 36 35 38 45 47 50 46 51 47 46 45 40 37 39 49 48 46 55 57 55 53 61 56 64 68 69 73 72 74
66 50 63 47 19 54 48 42 45 36 29 38 20 58 37 40 36 36 46 50 53 52 51 47 49 56 38 53 52 44 50 55 56 55 62 64 67 67 63 74 68 79 74 79
65 69 71 63 62 50 22 56 45 38 35 55 42 48 45 43 44 39 42 55 50 49 48 44 49 58 51 57 58 54 52 53 54 66 69 34 64 69 78 78 76 76 81 93
59 66 63 66 64 55 51 51 42 33 49 40 47 42 45 44 46 43 44 48 57 58 50 46 50 53 56 47 62 62 65 65 63 61 69 71 73 70 76 78 81 89 96 97
58 59 61 59 53 62 60 47 45 56 51 44 45 46 44 43 43 46 49 48 52 60 59 40 41 46 67 63 67 66 60 64 73 70 72 76 78 77 87 86 95 91 92 91
50 56 58 61 57 55 57 44 48 50 58 47 46 50 48 45 44 48 51 53 58 59 48 50 57 62 60 50 56 66 66 61 78 76 75 87 88 92 88 95 92 92 94 118
49 54 54 57 56 52 44 43 50 50 52 49 47 48 46 44 46 50 52 50 57 62 66 64 63 56 64 69 70 73 77 69 72 78 84 92 88 92 97 100 117 120 114 122
40 47 50 52 55 44 62 48 48 51 48 48 54 38 47 47 48 62 57 60 55 64 69 72 76 62 69 64 65 69 82 84 91 94 88 88 95 104 114 81 122 116 83 97
49 51 47 49 42 50 49 43 55 57 58 52 57 50 49 46 54 50 60 67 59 64 72 71 60 59 78 63 76 86 75 76 84 89 101 108 80 116 110 94 117 125 130 79
48 48 48 51 54 37 35 53 49 54 54 59 62 42 51 60 44 49 45 65 59 50 51 80 78 82 81 73 74 93 81 89 103 105 99 92 108 81 120 123 124 82 133 81
53 54 55 58 50 56 57 60 49 64 49 67 61 70 54 45 58 64 48 55 60 78 72 81 82 64 72 73 78 86 99 95 103 108 102 86 72 108 80 118 71 125 91 88
54 54 57 57 57 55 64 65 43 60 46 42 47 67 65 57 53 72 72 55 72 65 57 82 73 78 91 94 96 84 76 104 106 111 112 73 102 118 82 73 95 81 119 122
36 38 41 38 45 52 52 56 67 67 60 55 65 61 71 66 47 52 58 60 74 78 75 81 80 83 56 91 94 97 101 104 75 109 72 100 119 81 127 91 82 129 126 107
43 23 40 34 33 39 45 43 44 44 34 45 60 48 62 67 67 53 70 68 76 78 79 75 49 49 61 68 85 92 74 71 75 81 95 94 126 95 109 106 105 98 149 137
41 30 43 40 42 44 45 48 43 36 34 42 58 60 61 56 49 65 67 70 74 78 69 69 83 65 75 78 84 98 87 63 96 104 124 121 104 116 132 137 140 139 130 89
38 37 32 40 43 41 41 41 41 43 48 54 54 60 62 64 64 66 69 71 74 69 80 74 83 73 73 79 77 86 91 83 110 119 119 129 125 146 132 134 139 129 92 93
39 36 42 44 45 44 45 48 42 51 53 57 57 58 60 48 63 67 62 65 69 75 79 72 80 65 85 65 79 104 95 108 117 116 127 128 78 127 132 138 132 92 93 91
38 38 32 45 49 50 53 40 46 44 45 40 52 53 56 59 53 55 57 64 63 58 75 78 68 80 68 84 87 110 112 108 113 121 97 129 131 129 136 127 93 92 92 91
44 44 49 34 32 45 51 49 47 38 44 49 56 59 56 51 56 56 71 70 56 71 69 80 85 78 98 106 103 106 110 106 92 124 134 132 128 129 121 95 92 91 90 92
40 46 49 44 41 28 41 45 49 46 44 40 41 48 55 55 59 63 55 69 68 61 69 74 76 103 100 91 104 106 78 118 125 106 131 130 130 99 91 90 87 88 89 91
Wind_Direction
207 207 247 233 209 207 243 201 228 226 255 238 245 239 259 259 263 250 236 249 245 247 254 260 263 267 270 275 276 261 277 278 284 281 284 286 284 283 288 289 289 287 287 290
207 203 206 208 220 225 201 213 232 246 194 211 236 246 256 258 258 247 241 245 249 250 255 261 260 267 267 272 279 283 284 287 284 284 285 288 289 288 287 282 283 289 291 291
205 206 215 209 211 236 252 216 228 208 236 237 241 242 256 257 261 256 240 240 247 252 257 261 263 267 268 277 281 282 284 285 286 285 291 287 284 280 286 311 285 289 294 288
202 207 211 217 214 222 227 232 205 236 248 228 230 245 249 248 260 258 254 272 277 253 256 261 272 273 270 275 279 282 294 289 294 288 289 289 288 288 286 291 293 296 291 290
208 208 214 211 211 209 229 237 236 208 214 239 237 249 255 257 254 251 256 247 276 279 270 264 268 273 268 283 279 286 293 295 295 296 296 298 289 288 288 284 293 290 287 293
206 206 211 220 225 222 221 237 213 240 222 257 231 249 253 258 256 265 259 266 253 269 275 268 269 269 278 273 285 290 293 295 296 287 293 292 291 288 291 288 286 298 297 298
213 213 231 215 219 220 219 213 243 223 239 243 229 249 253 247 261 262 250 259 247 255 257 263 269 275 279 288 292 282 294 298 287 288 289 282 294 293 285 284 290 294 291 293
214 223 223 212 257 213 214 219 207 225 225 243 254 248 259 260 247 259 254 253 251 256 259 264 268 271 287 275 278 295 285 287 289 287 290 293 290 280 290 288 293 295 296 290
215 216 217 222 224 227 248 228 207 225 238 244 246 243 259 260 241 254 261 258 256 255 263 267 270 270 279 275 278 283 285 282 283 290 292 298 285 291 290 295 285 287 292 294
214 218 222 224 224 214 232 222 218 247 233 237 244 253 261 259 251 253 254 264 259 255 262 271 271 279 279 281 279 282 283 287 289 288 284 289 294 293 285 288 288 292 295 294
218 220 223 226 218 232 234 234 237 234 234 236 236 241 249 258 262 263 262 262 269 263 262 277 287 280 272 278 281 284 290 279 287 294 291 295 286 289 293 291 295 295 293 291
213 219 223 225 223 227 232 233 229 240 233 243 240 244 255 256 271 269 267 266 269 265 263 270 275 276 282 280 279 288 292 290 289 293 295 294 297 296 294 294 293 292 292 294
207 216 219 224 226 230 232 234 229 230 252 249 250 249 266 255 265 260 262 267 272 266 264 267 271 270 279 278 283 283 283 283 287 287 296 293 294 296 297 294 294 294 295 295
209 216 218 219 226 230 229 225 236 247 249 241 247 248 248 254 258 264 265 266 268 265 266 265 267 272 279 279 282 278 289 289 291 292 293 294 295 296 295 295 292 293 297 292
219 221 224 224 232 234 237 237 247 249 250 242 258 247 256 256 256 264 266 265 269 273 267 269 269 272 279 293 287 285 292 293 292 295 296 295 297 292 294 296 293 295 294 299
223 227 230 232 233 215 235 242 244 249 252 253 256 269 249 258 268 267 276 270 267 267 272 270 277 277 281 291 292 288 295 296 293 293 291 294 295 301 294 293 292 290 294 297
232 231 232 233 236 240 243 245 241 246 246 250 252 254 253 270 265 269 261 273 275 269 278 270 273 284 285 291 293 292 289 292 292 293 293 298 303 295 301 297 300 297 296 307
234 236 240 241 244 246 241 243 240 249 236 253 249 253 248 259 254 255 254 267 268 279 281 272 279 282 280 282 286 291 293 293 293 293 294 292 294 295 297 306 297 297 291 307
216 218 221 226 231 233 231 234 242 242 239 238 243 245 254 253 260 263 265 271 269 275 277 277 282 285 292 288 288 292 294 291 297 295 296 303 296 312 293 299 307 306 306 292
210 240 220 223 224 229 234 238 235 244 274 262 244 262 251 255 260 268 272 273 275 277 278 283 289 292 292 289 292 297 292 295 290 308 305 300 295 315 308 299 296 304 303 308
220 235 227 225 227 227 232 236 246 271 279 262 251 256 260 268 274 273 279 281 281 281 284 286 288 291 292 296 291 291 293 298 301 305 297 305 310 314 307 306 309 312 311 310
234 237 245 250 244 251 249 250 255 258 264 258 263 263 268 270 274 277 278 282 284 285 287 289 291 294 295 293 299 296 306 301 304 302 304 301 310 300 312 315 314 313 312 313
241 244 243 245 249 250 254 255 263 262 264 264 266 269 273 278 277 277 282 282 284 287 289 292 291 293 298 305 306 298 304 302 302 309 302 306 310 306 316 314 313 313 314 314
242 244 257 241 247 249 252 254 260 264 267 268 275 277 278 279 281 282 283 284 286 293 289 296 294 295 298 308 302 299 303 305 303 314 302 308 314 315 316 314 314 316 316 315
234 239 240 260 255 249 249 256 263 267 271 272 275 277 280 281 283 286 284 287 294 297 293 293 298 300 291 298 293 299 309 301 309 314 313 313 315 317 313 314 317 317 316 315
228 234 239 245 249 259 259 263 265 269 274 280 282 283 283 288 288 289 295 294 294 300 305 301 306 292 295 307 309 311 309 314 315 308 313 315 317 312 313 316 318 317 316 316